Overview Statistics Trail Chart Weather Telemetry Raw packets
 

This is the latest recevied weather packets stored in our database for station/object KB4MOX. If no packets are shown the sender has not sent any weather packets the latest 10 day(s).

<< 32 33 34 35 36 37 38 >>
Time Temp. Humidity Pressure Rain* Wind** Luminosity Snow
1788399878 28.89° C 67% 1017.7 hPa 0 mm - 0 W/m² -
1788399573 28.89° C 67% 1017.7 hPa 0 mm - 0 W/m² -
1788399273 28.89° C 67% 1017.7 hPa 0 mm - 0 W/m² -
1788398972 28.89° C 67% 1017.5 hPa 0 mm - 0 W/m² -
1788398672 28.89° C 66% 1017.7 hPa 0 mm - 0 W/m² -
1788398371 28.89° C 66% 1017.6 hPa 0 mm - 0 W/m² -
1788398066 28.89° C 67% 1017.5 hPa 0 mm - 0 W/m² -
1788397766 28.33° C 67% 1017.3 hPa 0 mm - 0 W/m² -
1788397461 28.33° C 67% 1017.4 hPa 0 mm - 0 W/m² -
1788397159 28.33° C 68% 1017.1 hPa 0 mm - 0 W/m² -
1788396855 28.33° C 68% 1017 hPa 0 mm - 0 W/m² -
1788396551 28.89° C 68% 1017.2 hPa 0 mm - 0 W/m² -
1788396246 28.89° C 68% 1017 hPa 0 mm - 0 W/m² -
1788395941 28.89° C 67% 1017 hPa 0 mm - 0 W/m² -
1788395636 28.89° C 66% 1017.1 hPa 0 mm - 0 W/m² -
1788395335 29.44° C 66% 1016.7 hPa 0 mm - 0 W/m² -
1788395030 30° C 65% 1016.9 hPa 0 mm - 0 W/m² -
1788394726 30° C 65% 1016.7 hPa 0 mm - 0 W/m² -
1788394421 30.56° C 63% 1016.7 hPa 0 mm - 0 W/m² -
1788394121 30.56° C 62% 1016.7 hPa 0 mm - 0 W/m² -
1788393816 31.11° C 62% 1016.7 hPa 0 mm - 1 W/m² -
1788393514 31.11° C 61% 1016.7 hPa 0 mm - 2 W/m² -
1788393209 31.67° C 59% 1016.5 hPa 0 mm - 3 W/m² -
1788392917 31.67° C 58% 1016.5 hPa 0 mm - 6 W/m² -
1788392603 32.22° C 57% 1016.6 hPa 0 mm - 9 W/m² -

* Rain latest hour (hover to see other rain measurements)
** Current wind speed in m/s (hover to see current wind gust speed)